Regional Weather Roundup
Issued by NWS

Home | Current Version | Previous Version | Text Only | Print | Product List | Glossary Off
Versions: 1 2 3 4 5 6 7 8 9 10 11 12 13 14 15 16 17 18 19 20 21 22 23 24 25 26 27 28

000
ASUS45 KBOI 200310
RWRID

IDAHO REGIONAL WEATHER ROUNDUP
NATIONAL WEATHER SERVICE BOISE ID
900 PM MDT WED JUL 19 2017

NOTE: "FAIR" INDICATES FEW OR NO CLOUDS BELOW 12000 FEET
WITH NO SIGNIFICANT WEATHER AND/OR OBSTRUCTIONS TO VISIBILITY

IDZ012-014-200400-
SOUTHWEST IDAHO


CITY           SKY/WX    TMP DP  RH WIND       PRES   REMARKS
BOISE          CLEAR     90  35  14 N7        29.87S
CALDWELL       NOT AVBL
MOUNTAIN HOME  CLEAR     90  37  15 W6        29.87R
$$

IDZ016-017-200400-
SOUTHCENTRAL IDAHO


CITY           SKY/WX    TMP DP  RH WIND       PRES   REMARKS
BURLEY         CLEAR     76  55  48 S3        29.97S
JEROME         CLEAR     74  58  57 CALM      29.98R
TWIN FALLS     CLEAR     71  58  63 SE7       29.98S
$$

IDZ019>023-200400-
SOUTHEAST IDAHO


CITY           SKY/WX    TMP DP  RH WIND       PRES   REMARKS
IDAHO FALLS    CLEAR     80  44  27 SW6       30.03R
POCATELLO      CLOUDY    79  43  27 S6        30.01R
REXBURG        CLEAR     78  42  27 S7        30.03S
$$

IDZ006-010-011-018-031-032-200400-
CENTRAL IDAHO MOUNTAINS


CITY           SKY/WX    TMP DP  RH WIND       PRES   REMARKS
MCCALL         CLEAR     77  36  22 S5        30.04S
HAILEY         CLEAR     66  41  39 CALM      30.10R
STANLEY          N/A     66  23  19 CALM      30.18R
SALMON         NOT AVBL
CHALLIS        CLEAR     82  15   8 W13       30.01R
$$

IDZ002-004-006-007-026-200400-
NORTHERN IDAHO


CITY           SKY/WX    TMP DP  RH WIND       PRES   REMARKS
LEWISTON       CLEAR     87  42  20 N7        29.85R
LOWELL           N/A     75  55  49 CALM      29.82R
COEUR D`ALENE  CLEAR     79  56  45 W3        29.91F
MULLAN PASS    CLEAR     67  39  35 N3        30.14S
$$




USA.gov is the U.S. government's official web portal to all federal, state and local government web resources and services.